sat.trackr.live / text

‹ back to catalog

GAOFEN-3 02

NORAD 49495 · 2021-109A

PAYLOAD ACTIVE UNKNOWN

§ Identity

Operator
Country
PRC
Launch date
2021-11-22
Launch site
JSC
Launch vehicle
Mass (kg)
RCS (m²)

External: N2YO · Heavens-Above · Gunter

§ Orbital elements

Epoch: 2026-05-25T03:42:00.345024Z

Period
99.85 min
Inclination
98.4098°
Eccentricity
0.0003913
Mean motion
14.42213501 rev/d
Perigee alt
748.4 km
Apogee alt
754.0 km
Semi-major
7,129.3 km
B*
3.0530e-5
RAAN
153.5787°
Arg perigee
67.8473°
Mean anomaly
292.3131°
Rev number
23,699

§ Raw data

GAOFEN-3 021 49495U 21109A   26145.15417066  .00000057  00000+0  30530-4 0  99982 49495  98.4098 153.5787 0003913  67.8473 292.3131 14.42213501236991

JSON: /api/v1/satellites/49495 · /tle

For live sub-satellite position, see the globe view (requires WebGL).

§ Visibility from observer

Set your observer location to see the next 7 days of passes ≥ 10°. The values pass through the URL so the page stays shareable.

No JS? Fill the form by hand. The geolocation button needs JavaScript.

§ Radio — SatNOGS DB

ModeDescriptionDownlinkUplink
FM S-band telemetry 2.212 GHz

1 transmitter · refreshed weekly from db.satnogs.org